Location: Cerro Villa Heights
(33.8267°N, 117.8042°W)
Time: 22:56:48
(UTC+00:00)

Thor Agena Rocket - Pass Details

Date: 05 August 2024
Orbit: 756 x 805 km, 99.1° (Epoch: 08 September)

Event Time Altitude Azimuth Distance (km) Brightness Sun altitude
Rises 12:03:00 0° 10° (N) 3,225 7.4 -12.7°
Reaches altitude 10° 12:05:19 10° 8° (N) 2,292 6.5 -12.3°
Maximum altitude 12:10:19 69° 286° (WNW) 809 3.5 -11.4°
Drops below altitude 10° 12:15:17 10° 203° (SSW) 2,275 5.5 -10.5°
Enters shadow 12:16:14 - 202° (SSW) 2,653 5.8 -10.3°
